Weather History for Monterey, CA

Change the Weather History Date:

Saturday, February 23, 2013

  Actual Average Record
Temperature  
Mean Temperature 48 °F 53 °F  
Max Temperature 54 °F 61 °F 66 °F (2009)
Min Temperature 41 °F 45 °F 40 °F (2007)
Degree Days  
Heating Degree Days 17    
Month to date heating degree days 362  
Since 1 July heating degree days 2187  
Cooling Degree Days 0    
Month to date cooling degree days 0  
Year to date cooling degree days 0  
Moisture  
Dew Point 43 °F    
Average Humidity 73    
Maximum Humidity 86    
Minimum Humidity 59    
Precipitation  
Precipitation 0.03 in - 0.31 in (2008)
Month to date precipitation 0.77  
Year to date precipitation 1.58  
Since 1 July precipitation 9.82  
Sea Level Pressure  
Sea Level Pressure 30.25 in    
Wind  
Wind Speed 10 mph (WSW)    
Max Wind Speed 23 mph    
Max Gust Speed 33 mph    
Visibility 9 miles    
Events Rain    
T = Trace of Precipitation, MM = Missing Value Source: NWS Daily Summary

Daily Weather History Graph

Daily Weather History Graph

Search for Another Location

Airport:

Trip Planner

Search our weather history database for the weather conditions in past years. The results will help you decide how hot, cold, wet, or windy it might be!

Date:

Astronomy

Feb. 23, 2013 Rise Set
Actual Time 6:45 AM PST 5:56 PM PST
Civil Twilight 6:19 AM PST 6:22 PM PST
Nautical Twilight 5:49 AM PST 6:52 PM PST
Astronomical Twilight 5:19 AM PST 7:22 PM PST
Moon 4:13 PM PST (2/23) 5:09 AM PST (2/23)
Length of Visible Light 12h 03m
Length of Day
11h 11m
Waxing Gibbous, 96% of the Moon is Illuminated
Feb 23
Waxing Gibbous
Feb 25
Full
Mar 4
Last Quarter
Mar 11
New
Mar 19
First Quarter

Hourly Weather History & Observations

Time (PST) Temp. Windchill Dew Point Humidity Pressure Visibility Wind Dir Wind Speed Gust Speed Precip Events Conditions
12:54 AM 50.0 °F - 45.0 °F 83% 30.32 in 10.0 mi SW 4.6 mph - N/A   Overcast
1:54 AM 48.9 °F - 45.0 °F 86% 30.30 in 10.0 mi South 3.5 mph - N/A   Mostly Cloudy
2:54 AM 48.0 °F - 44.1 °F 86% 30.27 in 10.0 mi South 4.6 mph - N/A   Mostly Cloudy
3:01 AM 48.2 °F - 44.6 °F 87% 30.24 in 10.0 mi South 4.6 mph - N/A   Scattered Clouds
3:50 AM 48.2 °F - 44.6 °F 87% 30.23 in 10.0 mi SSW 5.8 mph - N/A   Overcast
3:54 AM 48.9 °F - 45.0 °F 86% 30.27 in 10.0 mi SSW 6.9 mph - N/A   Overcast
4:54 AM 50.0 °F - 45.0 °F 83% 30.27 in 10.0 mi WSW 4.6 mph - N/A   Overcast
5:19 AM 50.0 °F - 44.6 °F 82% 30.23 in 10.0 mi SW 3.5 mph - N/A   Overcast
5:51 AM 50.0 °F - 44.6 °F 82% 30.23 in 10.0 mi Calm Calm - N/A   Overcast
5:54 AM 50.0 °F - 45.0 °F 83% 30.27 in 10.0 mi South 4.6 mph - N/A   Overcast
6:08 AM 50.0 °F - 46.4 °F 87% 30.23 in 9.0 mi SSW 4.6 mph - N/A   Overcast
6:21 AM 50.0 °F - 46.4 °F 87% 30.23 in 9.0 mi SSW 3.5 mph - N/A   Overcast
6:39 AM 50.0 °F - 46.4 °F 87% 30.23 in 1.5 mi SW 5.8 mph - N/A   Overcast
6:45 AM 48.2 °F - 46.4 °F 93% 30.24 in 1.5 mi WSW 6.9 mph - 0.01 in Rain Light Rain
6:48 AM 48.2 °F - 46.4 °F 93% 30.24 in 2.5 mi WSW 6.9 mph - 0.01 in   Overcast
6:54 AM 48.9 °F - 46.9 °F 93% 30.28 in 3.0 mi West 12.7 mph 19.6 mph 0.03 in Rain Rain
7:20 AM 50.0 °F - 46.4 °F 87% 30.24 in 10.0 mi West 12.7 mph 19.6 mph 0.00 in   Overcast
7:54 AM 48.9 °F - 44.1 °F 83% 30.30 in 10.0 mi West 12.7 mph 18.4 mph 0.00 in   Mostly Cloudy
8:04 AM 48.2 °F - 42.8 °F 82% 30.26 in 10.0 mi West 13.8 mph 25.3 mph N/A   Partly Cloudy
8:54 AM 50.0 °F - 42.1 °F 74% 30.30 in 10.0 mi West 16.1 mph 24.2 mph N/A   Partly Cloudy
9:54 AM 51.1 °F - 42.1 °F 71% 30.30 in 10.0 mi West 11.5 mph 18.4 mph N/A   Partly Cloudy
10:54 AM 52.0 °F - 41.0 °F 66% 30.29 in 10.0 mi WNW 10.4 mph - N/A   Scattered Clouds
11:54 AM 52.0 °F - 41.0 °F 66% 30.27 in 10.0 mi WNW 11.5 mph - N/A   Scattered Clouds
12:54 PM 54.0 °F - 41.0 °F 62% 30.25 in 10.0 mi West 12.7 mph - N/A   Scattered Clouds
1:54 PM 53.1 °F - 41.0 °F 64% 30.22 in 10.0 mi West 16.1 mph 23.0 mph N/A   Clear
2:54 PM 53.1 °F - 39.9 °F 61% 30.22 in 10.0 mi West 16.1 mph 26.5 mph N/A   Clear
3:54 PM 52.0 °F - 41.0 °F 66% 30.21 in 9.0 mi West 17.3 mph 26.5 mph N/A   Partly Cloudy
4:54 PM 50.0 °F - 42.1 °F 74% 30.19 in 9.0 mi West 17.3 mph 26.5 mph N/A   Clear
5:54 PM 50.0 °F - 42.1 °F 74% 30.20 in 8.0 mi West 17.3 mph 27.6 mph N/A   Clear
6:54 PM 48.9 °F - 42.1 °F 77% 30.22 in 10.0 mi West 11.5 mph 23.0 mph N/A   Clear
7:54 PM 50.0 °F - 41.0 °F 71% 30.24 in 10.0 mi WNW 8.1 mph 18.4 mph N/A   Clear
8:54 PM 48.9 °F - 41.0 °F 74% 30.25 in 10.0 mi Calm Calm - N/A   Clear
9:54 PM 44.1 °F 42.5 °F 39.0 °F 82% 30.26 in 9.0 mi East 3.5 mph - N/A   Clear
10:54 PM 42.1 °F 39.2 °F 37.9 °F 85% 30.25 in 9.0 mi ESE 4.6 mph - N/A   Clear
11:54 PM 42.1 °F - 39.0 °F 89% 30.25 in 9.0 mi Calm Calm - N/A   Clear